Overview Statistics Trail Chart Weather Telemetry Raw packets
 

This is the latest recevied weather packets stored in our database for station/object KQ7A. If no packets are shown the sender has not sent any weather packets the latest 10 day(s).

<< 49 50 51 52 53 54 55 >>
Time Temp. Humidity Pressure Rain* Wind** Luminosity Snow
1788344550 10° C 37% 1016.8 hPa 0 mm - 0 W/m² -
1788344245 10° C 40% 1017 hPa 0 mm - 0 W/m² -
1788343940 10.56° C 35% 1016.7 hPa 0 mm - 0 W/m² -
1788343639 11.67° C 34% 1016.6 hPa 0 mm - 0 W/m² -
1788343334 10.56° C 33% 1016.6 hPa 0 mm - 0 W/m² -
1788343033 10.56° C 37% 1016.3 hPa 0 mm - 0 W/m² -
1788342728 10.56° C 36% 1016.4 hPa 0 mm - 0 W/m² -
1788342423 10.56° C 36% 1016.3 hPa 0 mm - 0 W/m² -
1788342120 10.56° C 37% 1016.1 hPa 0 mm - 0 W/m² -
1788341819 10.56° C 36% 1016.2 hPa 0 mm - 0 W/m² -
1788341514 10.56° C 35% 1016 hPa 0 mm - 0 W/m² -
1788341208 10° C 37% 1016 hPa 0 mm - 0 W/m² -
1788340902 10.56° C 37% 1016.6 hPa 0 mm - 0 W/m² -
1788340597 11.11° C 34% 1016.2 hPa 0 mm - 0 W/m² -
1788340294 11.67° C 31% 1016.1 hPa 0 mm - 0 W/m² -
1788339993 11.67° C 33% 1016.4 hPa 0 mm - 0 W/m² -
1788339688 10° C 34% 1016.3 hPa 0 mm - 0 W/m² -
1788339384 9.44° C 37% 1016.6 hPa 0 mm - 0 W/m² -
1788339078 10° C 38% 1016.6 hPa 0 mm - 0 W/m² -
1788338775 10.56° C 36% 1016.7 hPa 0 mm - 0 W/m² -
1788338470 10° C 38% 1016.7 hPa 0 mm - 0 W/m² -
1788338165 10° C 38% 1016.8 hPa 0 mm - 0 W/m² -
1788337864 10.56° C 39% 1016.8 hPa 0 mm - 0 W/m² -
1788337560 11.11° C 36% 1016.9 hPa 0 mm - 0 W/m² -
1788337257 11.67° C 35% 1016.7 hPa 0 mm - 0 W/m² -

* Rain latest hour (hover to see other rain measurements)
** Current wind speed in m/s (hover to see current wind gust speed)